{"data":{"norad_id":50466,"epoch":"2026-05-25T05:10:20.020800Z","epoch_age_seconds":49622,"freshness":"FRESH","line1":"1 50466U 21131B   26145.21550950  .00000418  00000+0  14268-3 0  9990","line2":"2 50466  98.4962 237.7309 0004607 152.6416 207.5016 14.41331886231808","mean_motion":14.41331886,"eccentricity":0.0004607,"inclination_deg":98.4962,"raan_deg":237.7309,"arg_perigee_deg":152.6416,"mean_anomaly_deg":207.5016,"bstar":0.00014268,"rev_number":23180,"period_min":99.90759338547,"perigee_km":750.81547398733,"apogee_km":757.38711835342,"semimajor_km":7132.2382961704,"source":"CELESTRAK","updated_at":"2026-05-25T13:38:23.290454Z"}}